Regional Weather Roundup
Issued by NWS

Home | Current Version | Previous Version | Graphics & Text | Print | Product List | Glossary On
Versions: 1 2 3 4 5 6 7 8 9 10 11 12 13 14 15 16 17 18 19 20 21 22 23 24 25 26 27 28 29 30 31 32 33 34 35 36 37 38 39 40 41 42 43 44 45 46 47 48 49 50
000
ASUS43 KLSX 222059
RWRMO

WEATHER SUMMARY FOR MISSOURI
NATIONAL WEATHER SERVICE SPRINGFIELD MO
400 PM CDT MON SEP 22 2014

NOTE: "FAIR" INDICATES FEW OR NO CLOUDS BELOW 12,000 FEET WITH NO
       SIGNIFICANT WEATHER AND/OR OBSTRUCTIONS TO VISIBILITY.
       CURRENT SKY AND/OR WEATHER CONDITIONS ARE NOT AVAILABLE FOR
       CHILLICOTHE AND FARMINGTON.

MOZ001>031-035>038-043-044-053-054-222200-
...NORTHERN AND WESTERN MISSOURI...

CITY           SKY/WX    TMP DP  RH WIND       PRES   REMARKS
KANSAS CTY INT PTSUNNY   72  50  45 VRB5      30.25F
KANSAS C DTWN  SUNNY     75  51  43 E5        30.24F
LEE`S SUMMIT   SUNNY     73  51  46 S5        30.26F
ST JOSEPH      SUNNY     75  50  41 CALM      30.24F
KIRKSVILLE     SUNNY     72  49  44 NE3       30.26F

$$
MOZ066>068-077>081-088>096-101>105-222200-
...SOUTHWEST MISSOURI...

CITY           SKY/WX    TMP DP  RH WIND       PRES   REMARKS
SPRINGFIELD    SUNNY     74  48  39 CALM      30.24F
JOPLIN         SUNNY     74  52  46 VRB5      30.25F

$$
MOZ032>034-039>042-045>050-055>058-069>072-222200-
...CENTRAL MISSOURI...

CITY           SKY/WX    TMP DP  RH WIND       PRES   REMARKS
COLUMBIA       SUNNY     73  50  44 NE8       30.25F
JEFFERSON CITY SUNNY     75  45  34 SE9       30.24F
ROLLA          SUNNY     73  47  39 NE7       30.24F
SEDALIA        SUNNY     74  48  39 CALM      30.26F
OSAGE BEACH    SUNNY     73  46  38 NE5       30.25F

$$
MOZ051-052-059>065-222200-
...EAST CENTRAL MISSOURI...

CITY           SKY/WX    TMP DP  RH WIND       PRES   REMARKS
ST LOUIS INTL  MOSUNNY   73  47  39 CALM      30.24F
SPIRIT OF STL  SUNNY     72  46  39 CALM      30.24F
ST CHARLES     SUNNY     73  49  42 N10       30.23F

$$
MOZ072>076-082>087-097>100-106>115-222200-
...SOUTH CENTRAL AND SOUTHEAST MISSOURI...

CITY           SKY/WX    TMP DP  RH WIND       PRES   REMARKS
CAPE GIRARDEAU SUNNY     74  46  36 NE10      30.21F
FARMINGTON     SUNNY     72  48  43 N7        30.26F
POPLAR BLUFF   SUNNY     75  47  36 E5        30.20F
WEST PLAINS    SUNNY     73  47  39 CALM      30.24F

$$



USA.gov is the U.S. government's official web portal to all federal, state and local government web resources and services.